CFG4EV LGPZ-EDDM

Flight info

Callsign CFG4EV
Flight time 1h 50m
Altitude 36000
Route MALED UM127 KRK UL53 OLGAT DCT CRAYE DCT GISAM DCT DARZA DCT LUMUS DCT RASTA DCT REDBU Q112 NAPSA NAPSA1B
Aircraft A320/M-SDE2FGHIJ1RWXY/LB1

Departure

Time 2026-05-05 18:27
Airport Aktion National Airport (LGPZ)

Arrival

Time 2026-05-05 20:18
Airport Munich Airport (EDDM)
Time Latitude Longitude Altitude Speed Heading
2026-05-05 17:49 38.93025 20.77241 19 ft 0 kts 338°
2026-05-05 18:19 38.93001 20.77253 18 ft 4 kts 338°
2026-05-05 18:19 38.92980 20.77264 21 ft 4 kts 340°
2026-05-05 18:19 38.92955 20.77269 20 ft 4 kts 18°
2026-05-05 18:20 38.92941 20.77260 21 ft 4 kts 53°
2026-05-05 18:20 38.92929 20.77231 20 ft 2 kts 69°
2026-05-05 18:20 38.92928 20.77229 21 ft 0 kts 69°
2026-05-05 18:23 38.92929 20.77232 20 ft 3 kts 69°
2026-05-05 18:23 38.92949 20.77296 18 ft 12 kts 68°
2026-05-05 18:24 38.92964 20.77392 18 ft 10 kts 113°
2026-05-05 18:24 38.92898 20.77445 17 ft 14 kts 149°
2026-05-05 18:24 38.92898 20.77575 16 ft 17 kts 71°
2026-05-05 18:24 38.92935 20.77701 18 ft 14 kts 76°
2026-05-05 18:25 38.92883 20.77774 19 ft 11 kts 158°
2026-05-05 18:25 38.92845 20.77803 19 ft 9 kts 131°
2026-05-05 18:25 38.92858 20.77914 20 ft 12 kts 68°
2026-05-05 18:25 38.92887 20.78005 22 ft 10 kts 68°
2026-05-05 18:26 38.92912 20.78084 20 ft 9 kts 65°
2026-05-05 18:26 38.92960 20.78102 21 ft 7 kts 329°
2026-05-05 18:26 38.93000 20.78044 19 ft 11 kts 314°
2026-05-05 18:26 38.93011 20.77941 22 ft 20 kts 250°
2026-05-05 18:27 38.92868 20.77482 16 ft 90 kts 248°
2026-05-05 18:27 38.92558 20.76499 21 ft 145 kts 248°
2026-05-05 18:27 38.92134 20.75194 395 ft 159 kts 248°
2026-05-05 18:27 38.91819 20.73844 1090 ft 158 kts 266°
2026-05-05 18:28 38.92061 20.70786 1891 ft 193 kts 277°
2026-05-05 18:28 38.92242 20.68996 2329 ft 207 kts 277°
2026-05-05 18:28 38.92430 20.67110 2858 ft 220 kts 277°
2026-05-05 18:29 38.92624 20.65143 3599 ft 223 kts 277°
2026-05-05 18:29 38.92819 20.63150 4370 ft 226 kts 277°
2026-05-05 18:29 38.93121 20.61162 5174 ft 229 kts 291°
2026-05-05 18:29 38.93969 20.59419 5860 ft 235 kts 315°
2026-05-05 18:30 38.95250 20.57982 6272 ft 256 kts 315°
2026-05-05 18:30 38.96217 20.55986 6716 ft 273 kts 286°
2026-05-05 18:30 38.96388 20.53542 7421 ft 279 kts 268°
2026-05-05 18:30 38.96244 20.51046 8239 ft 281 kts 265°
2026-05-05 18:31 38.96047 20.48536 9061 ft 284 kts 265°
2026-05-05 18:31 38.95835 20.45995 9875 ft 288 kts 265°
2026-05-05 18:31 38.95612 20.43428 10614 ft 291 kts 265°
2026-05-05 18:31 38.95405 20.40833 11328 ft 293 kts 270°
2026-05-05 18:32 38.95712 20.38255 12031 ft 294 kts 292°
2026-05-05 18:32 38.96768 20.36014 12639 ft 301 kts 313°
2026-05-05 18:32 38.98396 20.34185 12801 ft 323 kts 321°
2026-05-05 18:32 39.00205 20.32320 13004 ft 342 kts 322°
2026-05-05 18:33 39.02085 20.30391 13573 ft 349 kts 321°
2026-05-05 18:33 39.03992 20.28430 14208 ft 352 kts 321°
2026-05-05 18:33 39.05908 20.26450 14833 ft 355 kts 321°
2026-05-05 18:33 39.07835 20.24450 15480 ft 357 kts 321°
2026-05-05 18:34 39.09768 20.22436 16122 ft 358 kts 320°
2026-05-05 18:34 39.11709 20.20407 16771 ft 360 kts 320°
2026-05-05 18:34 39.13658 20.18363 17397 ft 362 kts 320°
2026-05-05 18:34 39.15615 20.16308 18036 ft 364 kts 320°
2026-05-05 18:35 39.17585 20.14243 18638 ft 366 kts 320°
2026-05-05 18:35 39.19568 20.12169 19161 ft 368 kts 320°
2026-05-05 18:35 39.21565 20.10080 19678 ft 371 kts 320°
2026-05-05 18:35 39.23576 20.07977 20222 ft 373 kts 320°
2026-05-05 18:36 39.25598 20.05860 20773 ft 375 kts 320°
2026-05-05 18:36 39.27626 20.03732 21310 ft 377 kts 320°
2026-05-05 18:36 39.29662 20.01589 21853 ft 379 kts 319°
2026-05-05 18:36 39.31709 19.99432 22374 ft 381 kts 319°
2026-05-05 18:37 39.33764 19.97262 22880 ft 383 kts 319°
2026-05-05 18:37 39.35830 19.95081 23372 ft 385 kts 319°
2026-05-05 18:37 39.37908 19.92888 23819 ft 386 kts 319°
2026-05-05 18:37 39.39964 19.90711 24217 ft 388 kts 320°
2026-05-05 18:38 39.42058 19.88495 24596 ft 390 kts 320°
2026-05-05 18:38 39.44164 19.86271 24976 ft 392 kts 320°
2026-05-05 18:38 39.46280 19.84039 25349 ft 393 kts 320°
2026-05-05 18:38 39.48399 19.81800 25719 ft 394 kts 320°
2026-05-05 18:39 39.50526 19.79547 26083 ft 396 kts 319°
2026-05-05 18:39 39.52662 19.77280 26426 ft 398 kts 319°
2026-05-05 18:39 39.54805 19.75003 26768 ft 399 kts 319°
2026-05-05 18:39 39.56957 19.72717 27114 ft 401 kts 319°
2026-05-05 18:40 39.59118 19.70423 27453 ft 402 kts 319°
2026-05-05 18:40 39.61287 19.68116 27793 ft 404 kts 319°
2026-05-05 18:40 39.63461 19.65798 28118 ft 405 kts 319°
2026-05-05 18:40 39.65637 19.63470 28442 ft 407 kts 319°
2026-05-05 18:41 39.67824 19.61130 28748 ft 408 kts 319°
2026-05-05 18:41 39.70019 19.58785 29051 ft 409 kts 319°
2026-05-05 18:41 39.72220 19.56436 29341 ft 411 kts 319°
2026-05-05 18:41 39.74431 19.54074 29622 ft 412 kts 319°
2026-05-05 18:42 39.76645 19.51704 29890 ft 413 kts 319°
2026-05-05 18:42 39.78865 19.49324 30149 ft 414 kts 319°
2026-05-05 18:42 39.81092 19.46936 30367 ft 416 kts 319°
2026-05-05 18:42 39.83325 19.44541 30582 ft 416 kts 318°
2026-05-05 18:43 39.85558 19.42145 30870 ft 415 kts 319°
2026-05-05 18:43 39.87779 19.39760 31165 ft 413 kts 319°
2026-05-05 18:43 39.89992 19.37379 31467 ft 412 kts 318°
2026-05-05 18:43 39.92194 19.35005 31777 ft 410 kts 318°
2026-05-05 18:44 39.94389 19.32633 32088 ft 409 kts 318°
2026-05-05 18:44 39.96570 19.30273 32397 ft 407 kts 318°
2026-05-05 18:44 39.98746 19.27920 32705 ft 405 kts 318°
2026-05-05 18:44 40.00914 19.25578 33010 ft 404 kts 318°
2026-05-05 18:45 40.03073 19.23247 33315 ft 402 kts 318°
2026-05-05 18:45 40.05223 19.20924 33623 ft 401 kts 318°
2026-05-05 18:45 40.07365 19.18609 33931 ft 399 kts 318°
2026-05-05 18:45 40.09498 19.16302 34214 ft 398 kts 318°
2026-05-05 18:46 40.11624 19.13997 34460 ft 397 kts 318°
2026-05-05 18:46 40.13746 19.11692 34672 ft 397 kts 318°
2026-05-05 18:46 40.15865 19.09383 34892 ft 396 kts 318°
2026-05-05 18:46 40.17981 19.07075 35114 ft 396 kts 318°
2026-05-05 18:47 40.20098 19.04765 35307 ft 396 kts 318°
2026-05-05 18:47 40.22211 19.02453 35499 ft 396 kts 318°
2026-05-05 18:47 40.24372 19.00207 35676 ft 398 kts 323°
2026-05-05 18:47 40.26782 18.98404 35851 ft 401 kts 329°
2026-05-05 18:48 40.29263 18.96732 36024 ft 401 kts 329°
2026-05-05 18:48 40.31744 18.95061 36092 ft 402 kts 329°
2026-05-05 18:48 40.36707 18.91697 36097 ft 401 kts 329°
2026-05-05 18:49 40.41660 18.88317 36105 ft 401 kts 329°
2026-05-05 18:49 40.46602 18.84938 36089 ft 400 kts 329°
2026-05-05 18:50 40.51540 18.81565 36087 ft 400 kts 329°
2026-05-05 18:50 40.56474 18.78194 36085 ft 400 kts 329°
2026-05-05 18:51 40.61409 18.74818 36078 ft 400 kts 329°
2026-05-05 18:51 40.66340 18.71428 36094 ft 400 kts 329°
2026-05-05 18:52 40.71273 18.68030 36085 ft 400 kts 329°
2026-05-05 18:52 40.76203 18.64630 36082 ft 400 kts 329°
2026-05-05 18:53 40.81103 18.61250 36082 ft 400 kts 329°
2026-05-05 18:53 40.86033 18.57842 36081 ft 400 kts 329°
2026-05-05 18:54 40.90997 18.54411 36089 ft 400 kts 329°
2026-05-05 18:54 40.95893 18.51015 36083 ft 400 kts 329°
2026-05-05 18:55 41.00820 18.47599 36081 ft 400 kts 329°
2026-05-05 18:55 41.05748 18.44176 36079 ft 400 kts 329°
2026-05-05 18:56 41.10671 18.40741 36073 ft 400 kts 328°
2026-05-05 18:56 41.15590 18.37298 36078 ft 400 kts 328°
2026-05-05 18:57 41.20514 18.33847 36076 ft 400 kts 328°
2026-05-05 18:57 41.25445 18.30399 36074 ft 401 kts 328°
2026-05-05 18:58 41.30374 18.26936 36074 ft 401 kts 328°
2026-05-05 18:58 41.35303 18.23475 36073 ft 401 kts 328°
2026-05-05 18:59 41.40233 18.20012 36074 ft 401 kts 328°
2026-05-05 18:59 41.45160 18.16529 36074 ft 401 kts 328°
2026-05-05 19:00 41.50079 18.13038 36072 ft 400 kts 326°
2026-05-05 19:00 41.54715 18.08990 36074 ft 398 kts 323°
2026-05-05 19:01 41.59325 18.04892 36080 ft 398 kts 323°
2026-05-05 19:01 41.63946 18.00792 36063 ft 399 kts 323°
2026-05-05 19:02 41.68569 17.96675 36061 ft 399 kts 323°
2026-05-05 19:02 41.73197 17.92548 36061 ft 400 kts 323°
2026-05-05 19:03 41.77829 17.88419 36062 ft 400 kts 323°
2026-05-05 19:03 41.82460 17.84280 36073 ft 400 kts 323°
2026-05-05 19:04 41.86310 17.80826 36064 ft 401 kts 323°
2026-05-05 19:04 41.90946 17.76661 36059 ft 401 kts 323°
2026-05-05 19:05 41.95842 17.72994 36052 ft 404 kts 328°
2026-05-05 19:05 42.00790 17.69439 36069 ft 403 kts 328°
2026-05-05 19:06 42.05727 17.65874 36085 ft 403 kts 327°
2026-05-05 19:06 42.10660 17.62295 36075 ft 403 kts 327°
2026-05-05 19:07 42.15601 17.58714 36067 ft 403 kts 327°
2026-05-05 19:07 42.20540 17.55125 36064 ft 403 kts 327°
2026-05-05 19:08 42.25482 17.51536 36064 ft 403 kts 327°
2026-05-05 19:08 42.30428 17.47942 36070 ft 404 kts 327°
2026-05-05 19:09 42.35375 17.44337 36058 ft 404 kts 327°
2026-05-05 19:09 42.40295 17.40748 36056 ft 405 kts 327°
2026-05-05 19:10 42.45240 17.37117 36062 ft 404 kts 327°
2026-05-05 19:10 42.50182 17.33478 36066 ft 404 kts 327°
2026-05-05 19:11 42.55125 17.29840 36070 ft 404 kts 327°
2026-05-05 19:11 42.60075 17.26203 36068 ft 405 kts 327°
2026-05-05 19:12 42.65023 17.22560 36066 ft 405 kts 327°
2026-05-05 19:12 42.69975 17.18914 36065 ft 405 kts 327°
2026-05-05 19:13 42.74927 17.15253 36066 ft 405 kts 327°
2026-05-05 19:13 42.79877 17.11573 36061 ft 406 kts 327°
2026-05-05 19:14 42.84836 17.07890 36060 ft 406 kts 327°
2026-05-05 19:14 42.89798 17.04202 36058 ft 406 kts 327°
2026-05-05 19:15 42.94759 17.00500 36067 ft 406 kts 327°
2026-05-05 19:15 42.99723 16.96793 36066 ft 407 kts 327°
2026-05-05 19:16 43.04691 16.93076 36072 ft 407 kts 327°
2026-05-05 19:16 43.09657 16.89353 36067 ft 407 kts 327°
2026-05-05 19:17 43.14626 16.85619 36068 ft 407 kts 327°
2026-05-05 19:17 43.19594 16.81870 36073 ft 408 kts 327°
2026-05-05 19:18 43.24573 16.78119 36063 ft 409 kts 327°
2026-05-05 19:18 43.29524 16.74385 36059 ft 409 kts 327°
2026-05-05 19:19 43.34509 16.70607 36068 ft 409 kts 327°
2026-05-05 19:19 43.39492 16.66818 36089 ft 409 kts 326°
2026-05-05 19:20 43.44479 16.63026 36068 ft 410 kts 326°
2026-05-05 19:20 43.49471 16.59232 36073 ft 410 kts 326°
2026-05-05 19:21 43.54463 16.55431 36080 ft 410 kts 326°
2026-05-05 19:21 43.59462 16.51621 36076 ft 410 kts 326°
2026-05-05 19:22 43.64457 16.47795 36070 ft 410 kts 326°
2026-05-05 19:22 43.69449 16.43969 36073 ft 410 kts 326°
2026-05-05 19:23 43.74437 16.40128 36076 ft 410 kts 326°
2026-05-05 19:23 43.79426 16.36280 36073 ft 410 kts 326°
2026-05-05 19:24 43.84412 16.32426 36087 ft 410 kts 326°
2026-05-05 19:24 43.89403 16.28578 36082 ft 410 kts 326°
2026-05-05 19:25 43.94390 16.24724 36076 ft 410 kts 326°
2026-05-05 19:25 43.99339 16.20886 36080 ft 410 kts 326°
2026-05-05 19:26 44.04352 16.16993 36085 ft 410 kts 326°
2026-05-05 19:26 44.09339 16.13102 36067 ft 412 kts 326°
2026-05-05 19:27 44.14303 16.09222 36075 ft 412 kts 326°
2026-05-05 19:27 44.19306 16.05315 36073 ft 412 kts 326°
2026-05-05 19:28 44.24304 16.01403 36076 ft 412 kts 326°
2026-05-05 19:28 44.29306 15.97471 36074 ft 413 kts 326°
2026-05-05 19:29 44.34327 15.93527 36065 ft 415 kts 326°
2026-05-05 19:29 44.39359 15.89565 36078 ft 415 kts 325°
2026-05-05 19:30 44.44394 15.85588 36073 ft 415 kts 325°
2026-05-05 19:30 44.49420 15.81597 36078 ft 416 kts 326°
2026-05-05 19:31 44.54458 15.77589 36053 ft 417 kts 326°
2026-05-05 19:31 44.59507 15.73580 36052 ft 417 kts 326°
2026-05-05 19:32 44.64565 15.69564 36039 ft 418 kts 326°
2026-05-05 19:32 44.69623 15.65536 36063 ft 418 kts 325°
2026-05-05 19:33 44.74683 15.61485 36036 ft 419 kts 326°
2026-05-05 19:33 44.79758 15.57415 36024 ft 420 kts 326°
2026-05-05 19:34 44.84842 15.53339 36019 ft 421 kts 326°
2026-05-05 19:35 44.92475 15.47208 36018 ft 421 kts 326°
2026-05-05 19:35 44.97573 15.43100 36022 ft 423 kts 325°
2026-05-05 19:36 45.02646 15.38988 36022 ft 423 kts 325°
2026-05-05 19:36 45.07757 15.34848 36017 ft 423 kts 325°
2026-05-05 19:37 45.12870 15.30709 36017 ft 423 kts 325°
2026-05-05 19:37 45.17981 15.26548 35994 ft 425 kts 326°
2026-05-05 19:38 45.23109 15.22353 35989 ft 427 kts 326°
2026-05-05 19:38 45.28258 15.18142 35990 ft 428 kts 326°
2026-05-05 19:39 45.33419 15.13919 35997 ft 428 kts 326°
2026-05-05 19:39 45.38585 15.09682 36002 ft 429 kts 326°
2026-05-05 19:40 45.43769 15.05426 36003 ft 431 kts 326°
2026-05-05 19:40 45.48960 15.01154 36002 ft 431 kts 326°
2026-05-05 19:41 45.54211 14.96986 35992 ft 433 kts 328°
2026-05-05 19:41 45.59542 14.92989 36017 ft 433 kts 328°
2026-05-05 19:42 45.64892 14.88982 35994 ft 435 kts 328°
2026-05-05 19:42 45.70240 14.84904 35992 ft 436 kts 328°
2026-05-05 19:43 45.75592 14.80792 35992 ft 437 kts 328°
2026-05-05 19:43 45.80954 14.76658 35997 ft 438 kts 328°
2026-05-05 19:44 45.86319 14.72519 36014 ft 438 kts 328°
2026-05-05 19:44 45.91683 14.68378 36020 ft 437 kts 327°
2026-05-05 19:45 45.97042 14.64241 36028 ft 437 kts 327°
2026-05-05 19:45 46.02389 14.60095 36026 ft 436 kts 327°
2026-05-05 19:46 46.07736 14.55934 36011 ft 437 kts 327°
2026-05-05 19:46 46.13094 14.51769 36004 ft 438 kts 327°
2026-05-05 19:47 46.18422 14.47616 36021 ft 438 kts 327°
2026-05-05 19:47 46.23783 14.43416 36016 ft 439 kts 327°
2026-05-05 19:48 46.29146 14.39211 36009 ft 439 kts 327°
2026-05-05 19:48 46.34515 14.34987 36000 ft 439 kts 327°
2026-05-05 19:49 46.39889 14.30751 35990 ft 440 kts 327°
2026-05-05 19:49 46.45266 14.26513 35949 ft 440 kts 327°
2026-05-05 19:50 46.50640 14.22269 35964 ft 440 kts 327°
2026-05-05 19:50 46.56024 14.18002 35937 ft 441 kts 327°
2026-05-05 19:51 46.61412 14.13673 35929 ft 441 kts 326°
2026-05-05 19:51 46.66708 14.09215 35929 ft 441 kts 325°
2026-05-05 19:52 46.71138 14.05421 35925 ft 441 kts 325°
2026-05-05 19:52 46.77304 14.00181 35922 ft 441 kts 326°
2026-05-05 19:53 46.81759 13.96413 35935 ft 442 kts 326°
2026-05-05 19:53 46.87088 13.91903 35918 ft 443 kts 326°
2026-05-05 19:54 46.92386 13.87399 35913 ft 444 kts 326°
2026-05-05 19:54 46.97724 13.82843 35916 ft 444 kts 326°
2026-05-05 19:55 47.03074 13.78279 35800 ft 446 kts 326°
2026-05-05 19:55 47.05773 13.75973 34725 ft 454 kts 326°
2026-05-05 19:55 47.08519 13.73614 33604 ft 460 kts 325°
2026-05-05 19:55 47.11293 13.71230 32572 ft 463 kts 325°
2026-05-05 19:56 47.14069 13.68847 31635 ft 464 kts 326°
2026-05-05 19:56 47.16838 13.66470 31069 ft 457 kts 326°
2026-05-05 19:56 47.19573 13.64122 30433 ft 453 kts 326°
2026-05-05 19:56 47.22285 13.61789 29776 ft 450 kts 325°
2026-05-05 19:57 47.24969 13.59475 29131 ft 444 kts 325°
2026-05-05 19:57 47.27612 13.57194 28540 ft 438 kts 325°
2026-05-05 19:57 47.30224 13.54936 27950 ft 433 kts 325°
2026-05-05 19:57 47.32805 13.52701 27359 ft 428 kts 325°
2026-05-05 19:58 47.35362 13.50479 26766 ft 425 kts 325°
2026-05-05 19:58 47.37899 13.48269 26198 ft 422 kts 325°
2026-05-05 19:58 47.40419 13.46072 25635 ft 419 kts 325°
2026-05-05 19:58 47.42921 13.43895 25090 ft 416 kts 325°
2026-05-05 19:59 47.45409 13.41734 24541 ft 414 kts 325°
2026-05-05 19:59 47.47881 13.39586 24010 ft 411 kts 325°
2026-05-05 19:59 47.50248 13.37284 23518 ft 403 kts 317°
2026-05-05 19:59 47.52399 13.34666 22996 ft 399 kts 316°
2026-05-05 20:00 47.54525 13.32077 22515 ft 392 kts 316°
2026-05-05 20:00 47.56610 13.29554 22086 ft 384 kts 316°
2026-05-05 20:00 47.58672 13.27059 21633 ft 381 kts 316°
2026-05-05 20:00 47.60714 13.24585 21184 ft 377 kts 316°
2026-05-05 20:01 47.62733 13.22137 20743 ft 373 kts 316°
2026-05-05 20:01 47.64732 13.19707 20279 ft 370 kts 316°
2026-05-05 20:01 47.66717 13.17288 19828 ft 368 kts 316°
2026-05-05 20:01 47.68687 13.14883 19368 ft 366 kts 317°
2026-05-05 20:02 47.70650 13.12485 18908 ft 365 kts 317°
2026-05-05 20:02 47.72607 13.10090 18424 ft 364 kts 317°
2026-05-05 20:02 47.74559 13.07696 17922 ft 364 kts 317°
2026-05-05 20:02 47.76505 13.05309 17435 ft 361 kts 317°
2026-05-05 20:03 47.78434 13.02944 16970 ft 358 kts 317°
2026-05-05 20:03 47.80349 13.00593 16511 ft 356 kts 317°
2026-05-05 20:03 47.82250 12.98253 16059 ft 354 kts 317°
2026-05-05 20:03 47.84141 12.95925 15610 ft 352 kts 317°
2026-05-05 20:04 47.86020 12.93615 15161 ft 350 kts 318°
2026-05-05 20:04 47.87891 12.91312 14717 ft 348 kts 318°
2026-05-05 20:04 47.89751 12.89016 14271 ft 347 kts 318°
2026-05-05 20:04 47.91606 12.86725 13826 ft 346 kts 318°
2026-05-05 20:05 47.93452 12.84442 13346 ft 345 kts 318°
2026-05-05 20:05 47.95218 12.82056 12922 ft 340 kts 311°
2026-05-05 20:05 47.96817 12.79477 12568 ft 337 kts 309°
2026-05-05 20:05 47.98349 12.76851 12194 ft 333 kts 308°
2026-05-05 20:06 47.99831 12.74201 11938 ft 332 kts 307°
2026-05-05 20:06 48.01289 12.71544 11682 ft 330 kts 307°
2026-05-05 20:06 48.02739 12.68897 11435 ft 329 kts 307°
2026-05-05 20:06 48.04190 12.66260 11173 ft 328 kts 307°
2026-05-05 20:07 48.05641 12.63640 10922 ft 326 kts 307°
2026-05-05 20:07 48.07088 12.61035 10681 ft 325 kts 307°
2026-05-05 20:07 48.08531 12.58440 10440 ft 324 kts 307°
2026-05-05 20:07 48.09969 12.55846 10195 ft 322 kts 307°
2026-05-05 20:08 48.11381 12.53303 9963 ft 313 kts 307°
2026-05-05 20:08 48.12755 12.50827 9723 ft 305 kts 307°
2026-05-05 20:08 48.14094 12.48410 9460 ft 298 kts 307°
2026-05-05 20:08 48.15398 12.46053 9190 ft 291 kts 307°
2026-05-05 20:09 48.16673 12.43746 8930 ft 284 kts 307°
2026-05-05 20:09 48.17924 12.41475 8671 ft 281 kts 307°
2026-05-05 20:09 48.19162 12.39221 8421 ft 279 kts 307°
2026-05-05 20:09 48.20392 12.36981 8166 ft 278 kts 307°
2026-05-05 20:10 48.21619 12.34754 7914 ft 276 kts 307°
2026-05-05 20:10 48.22840 12.32539 7660 ft 275 kts 307°
2026-05-05 20:10 48.24056 12.30334 7407 ft 274 kts 307°
2026-05-05 20:10 48.25263 12.28137 7166 ft 272 kts 307°
2026-05-05 20:11 48.26464 12.25949 6919 ft 271 kts 307°
2026-05-05 20:11 48.27645 12.23799 6675 ft 263 kts 307°
2026-05-05 20:11 48.28790 12.21711 6432 ft 255 kts 307°
2026-05-05 20:11 48.29903 12.19683 6194 ft 248 kts 307°
2026-05-05 20:12 48.30976 12.17704 5942 ft 241 kts 304°
2026-05-05 20:12 48.31810 12.15575 5690 ft 233 kts 296°
2026-05-05 20:12 48.32527 12.13425 5430 ft 227 kts 295°
2026-05-05 20:12 48.33219 12.11320 5192 ft 222 kts 295°
2026-05-05 20:13 48.33894 12.09263 4950 ft 217 kts 294°
2026-05-05 20:13 48.34561 12.07269 4796 ft 209 kts 295°
2026-05-05 20:13 48.35203 12.05361 4664 ft 201 kts 295°
2026-05-05 20:13 48.35813 12.03522 4519 ft 193 kts 290°
2026-05-05 20:14 48.36062 12.01591 4270 ft 186 kts 268°
2026-05-05 20:14 48.35930 11.99689 4010 ft 180 kts 264°
2026-05-05 20:14 48.35791 11.97846 3775 ft 174 kts 264°
2026-05-05 20:14 48.35658 11.96075 3548 ft 165 kts 264°
2026-05-05 20:15 48.35534 11.94425 3335 ft 152 kts 264°
2026-05-05 20:15 48.35421 11.92920 3161 ft 141 kts 264°
2026-05-05 20:15 48.35312 11.91475 2965 ft 137 kts 265°
2026-05-05 20:15 48.35206 11.90059 2790 ft 136 kts 264°
2026-05-05 20:16 48.35099 11.88649 2609 ft 135 kts 264°
2026-05-05 20:16 48.34993 11.87244 2424 ft 136 kts 263°
2026-05-05 20:16 48.34887 11.85838 2238 ft 135 kts 263°
2026-05-05 20:16 48.34779 11.84427 2058 ft 136 kts 264°
2026-05-05 20:17 48.34672 11.83013 1856 ft 136 kts 264°
2026-05-05 20:17 48.34567 11.81609 1686 ft 135 kts 264°
2026-05-05 20:17 48.34460 11.80206 1498 ft 135 kts 265°
2026-05-05 20:17 48.34372 11.79001 1485 ft 93 kts 263°
2026-05-05 20:18 48.34316 11.78297 1485 ft 43 kts 263°
2026-05-05 20:18 48.34335 11.77932 1481 ft 31 kts 289°
2026-05-05 20:18 48.34412 11.77662 1477 ft 26 kts 293°
2026-05-05 20:18 48.34494 11.77450 1479 ft 20 kts 326°
2026-05-05 20:19 48.34618 11.77441 1480 ft 15 kts 33°
2026-05-05 20:19 48.34638 11.77571 1479 ft 12 kts 83°
2026-05-05 20:19 48.34649 11.77713 1476 ft 17 kts 83°
2026-05-05 20:19 48.34677 11.77881 1483 ft 15 kts 40°
2026-05-05 20:20 48.34779 11.77881 1483 ft 16 kts 352°
2026-05-05 20:20 48.34895 11.77861 1483 ft 18 kts 354°
2026-05-05 20:20 48.35022 11.77839 1473 ft 19 kts 353°
2026-05-05 20:20 48.35145 11.77827 1479 ft 15 kts 12°
2026-05-05 20:21 48.35187 11.77948 1476 ft 13 kts 83°
2026-05-05 20:21 48.35197 11.78078 1485 ft 12 kts 83°
2026-05-05 20:21 48.35178 11.78180 1480 ft 10 kts 141°
2026-05-05 20:21 48.35097 11.78205 1475 ft 13 kts 173°
2026-05-05 20:22 48.35011 11.78219 1485 ft 11 kts 173°
2026-05-05 20:22 48.34938 11.78232 1476 ft 10 kts 173°
2026-05-05 20:22 48.34893 11.78307 1485 ft 12 kts 88°
2026-05-05 20:22 48.34899 11.78379 1473 ft 1 kts 83°
2026-05-05 20:23 48.34899 11.78381 1473 ft 0 kts 83°